#timestamp,LO_Frequency,Temp,Hum 
1437411615.6,286078801.0,30.5,42.1 
1437411635.7,286078799.4,30.5,42.1 
1437411655.9,286078796.8,30.5,42.1 
1437411676.0,286078801.6,30.5,42.1 
1437411695.2,286078800.1,30.5,42.1 
1437411715.3,286078802.6,30.5,42.1 
1437411735.5,286078798.7,30.5,42.1 
1437411755.6,286078800.2,30.5,42.1 
1437411775.7,286078798.5,30.5,42.1 
1437411795.8,286078802.9,30.5,42.1 
1437411816.0,286078798.4,30.5,42.1 
1437411836.1,286078801.3,30.5,42.1 
1437411855.3,286078796.9,30.5,41.6 
1437411875.4,286078802.9,30.5,41.6 
1437411895.6,286078801.1,30.5,41.6 
1437411915.7,286078799.5,30.5,41.6 
1437411935.8,286078797.0,30.5,41.6 
1437411955.9,286078800.8,30.5,41.6 
1437411976.1,286078801.5,30.5,41.6 
1437411995.3,286078798.3,30.5,41.6 
1437412015.4,286078798.5,30.5,41.6 
1437412035.6,286078800.5,30.5,41.6 
1437412055.7,286078800.3,30.5,41.6 
1437412075.8,286078798.5,30.5,41.6 
1437412095.9,286078802.3,30.5,41.6 
1437412116.1,286078801.4,30.5,41.6 
1437412135.3,286078799.4,30.5,41.6 
1437412155.4,286078799.6,30.5,41.6 
1437412175.5,286078799.0,30.5,41.6 
1437412195.7,286078800.6,30.5,41.6 
1437412215.8,286078798.9,30.5,41.6 
1437412235.9,286078802.7,30.5,41.6 
1437412256.0,286078798.6,30.5,41.6 
1437412275.3,286078798.7,30.5,41.6 
1437412295.4,286078802.5,30.5,41.6 
1437412315.5,286078799.1,30.5,41.6 
1437412335.6,286078802.3,30.5,41.6 
1437412355.8,286078799.8,30.5,41.6 
1437412375.9,286078796.8,30.5,41.6 
1437412396.0,286078801.3,30.5,41.6 
1437412415.2,286078799.0,30.5,41.6 
1437412435.4,286078800.6,30.5,41.6 
1437412455.5,286078800.7,30.5,41.6 
1437412475.6,286078798.6,30.5,41.6 
1437412495.8,286078802.8,30.5,41.6 
1437412515.9,286078796.9,30.5,41.6 
1437412536.0,286078800.5,30.5,41.6 
1437412555.2,286078801.4,30.5,41.6 
1437412575.4,286078799.7,30.5,41.6 
1437412595.5,286078797.4,30.5,41.6 
1437412615.6,286078802.7,30.5,41.6 
1437412635.7,286078798.7,30.5,41.6 
1437412655.9,286078800.2,30.5,41.6 
1437412676.0,286078804.2,30.5,41.6 
1437412695.2,286078797.5,30.5,42.1 
1437412715.3,286078801.4,30.5,42.1 
1437412735.5,286078798.9,30.5,42.1 
1437412755.6,286078798.4,30.5,42.1 
1437412775.7,286078798.5,30.5,42.1 
1437412795.8,286078801.7,30.5,42.1 
1437412816.0,286078800.8,30.5,42.1 
1437412836.1,286078798.8,30.5,42.1 
1437412855.3,286078800.2,30.5,42.1 
1437412875.4,286078802.6,30.5,42.1 
1437412895.6,286078802.5,30.5,42.1 
1437412915.7,286078798.5,30.5,41.6 
1437412935.8,286078800.4,30.5,40.6 
1437412955.9,286078802.1,30.5,41.1 
1437412976.1,286078801.3,30.5,41.1 
1437412995.3,286078801.4,29.8,40.1 
1437413015.5,286078809.2,29.8,39.6 
1437413035.6,286078795.7,29.8,40.1 
1437413055.7,286078800.6,30.5,40.1 
1437413075.9,286078799.3,30.5,39.6 
1437413096.0,286078796.9,30.5,39.6 
1437413115.2,286078801.2,30.5,40.1 
1437413135.4,286078799.0,30.5,40.1 
1437413155.5,286078799.7,30.5,40.6 
1437413175.6,286078796.8,30.5,39.6 
1437413195.8,286078804.5,29.8,38.6 
1437413215.9,286078800.3,29.8,38.6 
1437413236.0,286078801.4,30.5,39.1 
1437413255.2,286078799.6,30.5,39.1 
1437413275.4,286078797.6,30.5,39.1 
1437413295.5,286078801.2,30.5,39.1 
1437413315.6,286078799.9,30.5,39.1 
1437413335.7,286078799.3,30.5,38.6 
1437413355.9,286078798.5,30.5,38.6 
1437413376.0,286078801.4,29.8,39.6 
1437413396.1,286078797.0,29.8,40.6 
1437413415.3,286078798.6,29.8,40.1 
1437413435.4,286078802.6,30.5,39.6 
1437413455.6,286078798.8,30.5,39.6 
1437413475.7,286078798.6,30.5,39.6 
1437413495.8,286078796.8,30.5,40.1 
1437413515.9,286078801.6,30.5,40.1 
1437413536.1,286078802.3,30.5,40.1 
1437413555.3,286078799.7,30.5,40.1 
1437413575.4,286078799.7,30.5,40.1 
1437413595.5,286078797.4,30.5,40.1 
1437413615.7,286078801.2,30.5,40.1 
1437413635.8,286078798.0,30.5,40.1 
1437413655.9,286078800.9,30.5,40.1 
1437413676.1,286078798.7,30.5,40.1 
1437413695.3,286078802.9,30.5,39.6 
1437413715.4,286078795.4,30.5,40.1 
1437413735.5,286078802.5,30.5,39.1 
1437413755.6,286078796.1,30.5,39.6 
1437413775.8,286078804.2,30.5,39.6 
1437413795.9,286078798.1,30.5,40.1 
1437413816.0,286078799.1,30.5,40.1 
1437413835.2,286078799.8,30.5,40.1 
1437413855.4,286078799.8,30.5,40.1 
1437413875.5,286078797.3,30.5,40.1 
1437413895.6,286078800.2,30.5,40.1 
1437413915.7,286078800.4,30.5,40.1 
1437413935.9,286078801.5,30.5,39.6 
1437413956.0,286078800.3,30.5,40.1 
1437413975.2,286078798.8,30.5,39.1 
1437413995.3,286078798.8,30.5,39.6 
1437414015.5,286078803.1,30.5,39.6 
1437414035.6,286078797.6,30.5,40.1 
1437414055.7,286078800.9,30.5,40.1 
1437414075.8,286078799.7,30.5,40.1 
1437414096.0,286078799.7,30.5,40.6 
1437414116.1,286078798.3,30.5,40.6 
1437414135.3,286078801.5,30.5,40.6 
1437414155.4,286078798.1,30.5,40.6 
1437414175.6,286078799.3,30.5,40.6 
1437414195.7,286078798.4,30.5,40.6 
1437414215.8,286078803.0,30.5,40.6 
1437414235.9,286078797.8,30.5,40.6 
1437414256.1,286078798.7,30.5,40.6 
1437414275.3,286078801.2,30.5,40.6 
1437414295.4,286078798.7,30.5,40.6 
1437414315.5,286078800.8,30.5,40.6 
1437414335.7,286078799.6,30.5,40.1 
1437414355.8,286078801.0,30.5,40.1 
1437414375.9,286078798.9,30.5,40.1 
1437414396.0,286078802.4,30.5,40.1 
1437414415.3,286078798.4,30.5,40.1 
1437414435.4,286078804.7,30.5,40.1 
1437414455.5,286078799.9,30.5,40.1 
1437414475.6,286078799.4,30.5,39.6 
1437414495.8,286078801.1,30.5,38.6 
1437414515.9,286078801.5,30.5,38.6 
1437414536.0,286078797.2,30.5,39.1 
1437414555.3,286078801.3,30.5,39.1 
1437414575.4,286078798.5,30.5,39.1 
1437414595.5,286078798.9,30.5,39.1 
1437414615.6,286078799.8,30.5,39.1 
1437414635.8,286078798.0,30.5,39.6 
1437414655.9,286078798.6,30.5,39.6 
1437414676.0,286078798.4,30.5,39.6 
1437414695.2,286078800.9,30.5,39.6 
1437414715.4,286078800.3,30.5,39.6 
1437414735.5,286078798.5,30.5,39.6 
1437414755.6,286078803.1,30.5,40.1 
1437414775.7,286078799.9,30.5,40.1 
1437414795.9,286078797.5,30.5,40.1 
1437414816.0,286078800.8,30.5,40.1 
1437414836.1,286078801.4,30.5,40.1 
1437414855.3,286078799.9,30.5,40.1 
1437414875.5,286078797.8,30.5,40.1 
1437414895.6,286078801.4,30.5,40.1 
1437414915.7,286078799.5,30.5,40.1 
1437414935.9,286078798.6,30.5,40.6 
1437414956.0,286078803.0,30.5,40.6 
1437414975.2,286078798.9,30.5,40.1 
1437414995.3,286078798.8,30.5,40.1 
1437415015.5,286078800.1,30.5,40.1 
1437415035.6,286078798.6,30.5,40.6 
1437415055.7,286078803.0,30.5,40.6 
1437415075.8,286078799.6,30.5,40.6 
1437415096.0,286078798.1,30.5,40.6 
1437415116.1,286078800.6,30.5,40.6 
1437415135.3,286078797.1,30.5,41.1 
1437415155.4,286078802.6,30.5,41.1 
1437415175.6,286078798.5,30.5,41.1 
1437415195.7,286078800.9,30.5,41.1 
